[[{"header":{"parameterUnit":"m.s-1","parameterCategory":1,"la1":30.2991,"la2":30.254,"lo1":-89.0895,"lo2":-89.0444,"dy":0.0017,"dx":0.0017,"nx":28,"ny":28,"refTime":"2024-06-09T03:00:00:Z","depth":0,"parameterNumber":2,"parameterNumberName":"U-component_of_WINDS"},"data":[0,0,0,0,0,0,0,0,0,0,0,0,0,0,0,0,0,0,0,0,0,0,0,0,0,0,0,0,0,0,0,0,0,0,0,0,0,0,0,0,0,0,0,0,0,0,0,0,0,0,0,0,0,0,0,0,0,0,4.5711,4.5713,0,4.5907,4.591,4.5912,4.5918,4.5915,4.5913,4.5911,4.6113,4.6121,4.6128,0,0,0,0,0,0,0,0,0,0,0,0,0,4.5342,4.5349,4.5711,4.5713,4.5716,4.5907,4.591,4.5912,4.5918,4.5915,4.5912,4.591,4.6111,4.612,4.6129,0,0,0,0,0,0,0,0,0,0,0,0,0,4.5517,4.5351,4.5711,4.5742,4.5746,4.5907,4.591,4.5913,4.5919,4.5915,4.5912,4.5908,4.6108,4.6119,4.613,4.6273,0,0,4.6165,4.617,0,0,0,0,0,0,0,0,4.5507,4.553,4.5735,4.574,4.5745,4.5884,4.5854,4.6034,4.592,4.5853,4.5911,4.5906,4.604,4.6057,4.6102,4.6282,4.6291,4.6166,4.6173,4.6178,4.6181,0,0,0,0,0,0,0,4.5495,4.5522,4.5789,4.5738,4.5744,4.5746,4.5767,4.5888,4.5965,4.5859,4.586,4.5883,4.6042,4.6091,4.6106,4.6294,4.6166,4.6176,4.6183,4.6187,4.6601,4.6605,0,0,0,0,0,0,4.5476,4.5512,4.5783,4.5795,4.5615,4.5756,4.5779,4.5843,4.5963,4.5978,4.5886,4.5882,4.6073,4.6093,4.6114,4.6288,4.6178,4.6188,4.6195,4.6597,4.6602,4.6606,0,0,0,0,0,0,4.5468,4.55,4.5775,4.5654,4.5689,4.5766,4.5838,4.5849,4.5897,4.5984,4.5997,4.5921,4.6071,4.6097,4.6233,4.6295,4.6194,4.6204,4.6592,4.6599,4.6604,4.6639,0,0,0,0,0,0,4.5458,4.5498,4.5552,4.5655,4.5695,4.589,4.5842,4.5856,4.5917,4.5915,4.602,4.6034,4.607,4.6216,4.6244,4.6309,4.6213,4.6587,4.6595,4.6602,4.6632,4.6645,4.6656,0,0,0,0,0,4.5445,4.5554,4.5555,4.5588,4.5765,4.5894,4.5917,4.5956,4.5922,4.5978,4.6033,4.6031,4.6284,4.623,4.6262,4.6331,4.6583,4.6593,4.6602,4.6627,4.6643,4.6656,0,0,0,0,0,0,4.5458,4.5568,4.557,4.5717,4.5796,4.5895,4.5966,4.5971,4.6062,4.6056,4.61,4.6124,4.6259,4.6309,4.6246,4.6475,4.643,4.6446,4.6438,4.6453,4.6465,4.645,4.6222,0,0,0,0,0,4.5478,4.5573,4.5665,4.5785,4.5824,4.5888,4.5946,4.5969,4.6053,4.6087,4.6152,4.6234,4.6332,4.6395,4.649,4.6639,4.6663,4.6703,4.6715,4.6724,4.6738,4.682,4.6839,4.6637,4.6637,4.6637,0,0,4.552,4.5592,4.565,4.5789,4.5853,4.5951,4.5917,4.6022,4.6095,4.6103,4.6234,4.6285,4.638,4.6522,4.6589,4.6568,4.6799,4.6736,4.6743,4.6752,4.6832,4.6851,4.6868,4.6643,4.6642,4.6641,0,0,4.5647,4.5711,4.5818,4.5883,4.598,4.6022,4.6047,4.6146,4.618,4.6312,4.632,4.6408,4.6576,4.6643,4.6699,4.6851,4.6852,4.6881,4.6943,4.7023,4.7039,4.7053,4.7107,4.7126,4.6894,4.6894,4.6894,0,4.5687,4.5834,4.5872,4.5978,4.6039,4.605,4.6159,4.622,4.6343,4.6386,4.6361,4.6571,4.6636,4.6794,4.6831,4.6876,4.6907,4.6869,4.7033,4.7048,4.7062,4.7114,4.7134,4.6897,4.6896,4.6896,4.6896,0,4.5879,4.5981,4.6056,4.6174,4.6244,4.635,4.6405,4.6471,4.6487,4.6532,4.6667,4.6745,4.6855,4.6895,4.6912,4.7056,4.704,4.7024,4.6979,4.7084,4.7133,4.7153,4.6901,4.6899,4.6899,4.6898,0,0,4.602,4.6158,4.6184,4.6238,4.6346,4.6426,4.6533,4.664,4.6696,4.6781,4.6872,4.7013,4.6999,4.7062,4.7088,4.7158,4.7272,4.7133,4.7136,4.7156,4.7435,4.7446,4.7469,4.7274,4.7278,4.7281,4.7427,0,4.6159,4.6348,4.6386,4.6551,4.6645,4.6657,4.675,4.6826,4.6871,4.6958,4.7007,4.7107,4.708,4.7119,4.7189,4.7244,4.7329,4.7234,4.7359,4.7363,4.7335,4.7495,4.7507,4.7641,4.7447,4.745,4.7453,0,4.6346,4.6434,4.6608,4.6703,4.6744,4.6827,4.6928,4.7011,4.7098,4.7126,4.7196,4.7214,4.7326,4.7275,4.743,4.7364,4.7418,4.7453,4.7459,4.7472,4.7414,4.7512,4.7685,4.7705,4.7483,4.7481,4.7479,0,4.6431,4.6593,4.6719,4.6764,4.6878,4.6936,4.6986,4.7069,4.7131,4.722,4.7261,4.7362,4.7417,4.7495,4.7539,4.7499,4.7691,4.7644,4.7717,4.7716,4.7757,4.7753,4.794,4.7792,4.7791,4.7791,4.7791,0,4.6581,4.6687,4.6758,4.6835,4.6954,4.6996,4.7113,4.7163,4.7237,4.7324,4.734,4.7421,4.7475,4.7564,4.7599,4.7722,4.7747,4.7772,4.778,4.7771,4.7768,4.7806,4.7798,4.7796,4.7795,4.7794,4.7793,0,4.6697,4.6749,4.6886,4.6982,4.7008,4.7092,4.7174,4.725,4.7294,4.7403,4.7432,4.7501,4.7607,4.7659,4.779,4.7814,4.7953,4.7955,4.7923,4.7926,4.7995,4.7988,4.8214,4.8245,4.8076,4.8077,4.8079,0,4.679,4.6871,4.6976,4.7035,4.7086,4.7181,4.7244,4.7289,4.7354,4.7459,4.7522,4.7628,4.7715,4.7883,4.7946,4.8046,4.8051,4.8123,4.8066,4.8054,4.8052,4.8046,4.8054,4.8133,4.8135,4.8136,4.8137,0,4.6949,4.697,4.706,4.716,4.7234,4.7315,4.7394,4.7442,4.7499,4.7571,4.7679,4.7747,4.788,4.7985,4.809,4.8142,4.815,4.8155,4.8177,4.8168,4.8146,4.8158,4.795,4.8149,4.8148,4.8147,4.8147,4.8146,4.7056,4.7129,4.7213,4.7313,4.7377,4.7451,4.7526,4.7579,4.7669,4.7781,4.7802,4.7916,4.8001,4.8142,4.8198,4.8288,4.8272,4.8304,4.8312,4.8319,4.8322,4.8131,4.8307,4.8307,4.8307,4.8306,4.8306,0,4.7215,4.727,4.7362,4.7471,4.755,4.7549,4.7636,4.7702,4.7802,4.788,4.7965,4.8089,4.8191,4.8261,4.8365,4.8423,4.8429,4.8449,4.8445,4.8457,4.8331,4.8301,4.8442,4.8442,4.8442,4.8442,4.8442,4.8442,4.7308,4.7431,4.7462,4.7617,4.7671,4.7783,4.7832,4.79,4.7963,4.8099,4.8184,4.8229,4.8304,4.8413,4.8506,4.8524,4.8561,4.8581,4.8599,4.848,4.8466,4.8452,4.8424,4.8589,4.8589,4.8718,4.8719,4.872]},{"header":{"parameterUnit":"m.s-1","parameterCategory":1,"la1":30.2991,"la2":30.254,"lo1":-89.0895,"lo2":-89.0444,"dy":0.0017,"dx":0.0017,"nx":28,"ny":28,"refTime":"2024-06-09T03:00:00:Z","depth":0,"parameterNumber":3,"parameterNumberName":"V-component_of_WINDS"},"data":[0,0,0,0,0,0,0,0,0,0,0,0,0,0,0,0,0,0,0,0,0,0,0,0,0,0,0,0,0,0,0,0,0,0,0,0,0,0,0,0,0,0,0,0,0,0,0,0,0,0,0,0,0,0,0,0,0,0,0.4048,0.4047,0,0.3996,0.3996,0.3995,0.3933,0.3932,0.3931,0.393,0.3878,0.3877,0.3877,0,0,0,0,0,0,0,0,0,0,0,0,0,0.4092,0.4092,0.4048,0.4047,0.4047,0.3996,0.3996,0.3995,0.3933,0.3932,0.393,0.3929,0.3878,0.3877,0.3877,0,0,0,0,0,0,0,0,0,0,0,0,0,0.406,0.4091,0.4048,0.401,0.4006,0.3997,0.3996,0.3995,0.3933,0.3932,0.393,0.3929,0.3878,0.3877,0.3877,0.3902,0,0,0.3875,0.3874,0,0,0,0,0,0,0,0,0.4062,0.4058,0.4016,0.4012,0.4008,0.3969,0.3992,0.3964,0.3933,0.3961,0.393,0.3928,0.391,0.3906,0.39,0.3899,0.3897,0.3875,0.3874,0.3874,0.3874,0,0,0,0,0,0,0,0.4064,0.406,0.4027,0.4015,0.401,0.3995,0.3988,0.3986,0.3944,0.3958,0.3953,0.3948,0.3907,0.3901,0.3898,0.3896,0.3875,0.3874,0.3873,0.3873,0.3912,0.3914,0,0,0,0,0,0,0.4072,0.4063,0.4029,0.4026,0.4032,0.3995,0.3988,0.3983,0.3944,0.3936,0.3949,0.3945,0.3902,0.3899,0.3896,0.3922,0.3874,0.3873,0.3873,0.3911,0.3913,0.3914,0,0,0,0,0,0,0.4073,0.407,0.4031,0.4043,0.4037,0.3996,0.3991,0.3983,0.3976,0.3937,0.3929,0.3951,0.3901,0.3897,0.39,0.392,0.3873,0.3872,0.3909,0.3912,0.3914,0.3976,0,0,0,0,0,0,0.4075,0.4071,0.408,0.4044,0.4036,0.4037,0.3992,0.3983,0.3975,0.397,0.3936,0.3929,0.39,0.3902,0.39,0.3918,0.3872,0.3907,0.391,0.3913,0.3972,0.398,0.3987,0,0,0,0,0,0.4077,0.41,0.4081,0.4077,0.4047,0.4038,0.4034,0.3999,0.3977,0.3986,0.396,0.3931,0.3917,0.3903,0.39,0.3918,0.3906,0.3909,0.3913,0.3968,0.3978,0.3986,0,0,0,0,0,0,0.414,0.4095,0.4073,0.4085,0.4066,0.4028,0.4038,0.4011,0.3998,0.3993,0.395,0.3943,0.3952,0.3935,0.3919,0.3939,0.3907,0.391,0.3951,0.396,0.3967,0.3971,0.3871,0,0,0,0,0,0.4156,0.4152,0.4112,0.4127,0.4118,0.408,0.4075,0.4049,0.4028,0.402,0.3994,0.3975,0.3966,0.3962,0.3952,0.3968,0.396,0.3979,0.3987,0.3993,0.3996,0.4003,0.4011,0.3925,0.3925,0.3925,0,0,0.4188,0.4162,0.4163,0.4139,0.4121,0.4118,0.4074,0.4073,0.407,0.402,0.4021,0.4002,0.3977,0.3987,0.3991,0.3973,0.4018,0.3997,0.4002,0.4002,0.4007,0.4016,0.4023,0.3927,0.3927,0.3927,0,0,0.4245,0.4225,0.4235,0.4217,0.4191,0.4165,0.4167,0.4133,0.4118,0.4118,0.408,0.4076,0.4062,0.4046,0.4036,0.4085,0.4057,0.4082,0.4122,0.4129,0.4136,0.4142,0.4159,0.4166,0.4086,0.4086,0.4086,0,0.4288,0.4283,0.4243,0.4245,0.4235,0.4188,0.4197,0.4182,0.4154,0.4148,0.4129,0.411,0.409,0.4096,0.4107,0.41,0.4102,0.4087,0.4138,0.4143,0.4148,0.4165,0.4172,0.4089,0.4089,0.4088,0.4088,0,0.4337,0.4334,0.4345,0.4318,0.4309,0.4315,0.4276,0.4272,0.4247,0.4223,0.4223,0.4197,0.4181,0.418,0.4155,0.4182,0.4172,0.4146,0.4113,0.4161,0.4175,0.4181,0.4094,0.4093,0.4092,0.4091,0,0,0.4435,0.4385,0.439,0.4377,0.4343,0.434,0.4342,0.4325,0.4323,0.4304,0.4305,0.4294,0.4269,0.4258,0.4231,0.4237,0.4277,0.421,0.4209,0.4224,0.4304,0.4325,0.4333,0.4257,0.4258,0.4259,0.4307,0,0.4487,0.4489,0.4453,0.4465,0.4461,0.4415,0.4417,0.4396,0.4373,0.4366,0.4341,0.4333,0.4301,0.4294,0.4298,0.4272,0.4293,0.4267,0.4259,0.4259,0.4268,0.434,0.4362,0.4409,0.4312,0.4313,0.4314,0,0.4548,0.4532,0.4544,0.4508,0.4505,0.4508,0.4489,0.4483,0.4458,0.4441,0.4427,0.4396,0.4395,0.4363,0.4362,0.4345,0.4339,0.4325,0.4326,0.4325,0.429,0.4342,0.4422,0.443,0.4322,0.4321,0.4321,0,0.4619,0.46,0.4605,0.4595,0.4554,0.4556,0.4539,0.4513,0.4505,0.4488,0.4482,0.4466,0.4457,0.4445,0.441,0.4389,0.4412,0.4377,0.4398,0.4399,0.4407,0.4407,0.4488,0.4401,0.4401,0.4401,0.4401,0,0.4681,0.469,0.4636,0.4639,0.4647,0.4605,0.4615,0.4593,0.4569,0.4567,0.4525,0.4524,0.4477,0.447,0.4442,0.4445,0.4441,0.4428,0.442,0.4432,0.4434,0.4429,0.4425,0.4403,0.4402,0.4402,0.4402,0,0.4763,0.4727,0.4729,0.4689,0.4679,0.4687,0.4653,0.4653,0.4627,0.4624,0.4621,0.458,0.4569,0.4532,0.4513,0.4494,0.4506,0.4491,0.4515,0.4511,0.4534,0.4533,0.4615,0.4624,0.4531,0.4532,0.4533,0,0.4806,0.4811,0.4772,0.4767,0.4752,0.4745,0.4736,0.4694,0.4686,0.4657,0.4662,0.4648,0.4634,0.462,0.4588,0.4572,0.4557,0.4587,0.4555,0.4566,0.4559,0.4559,0.456,0.4595,0.4596,0.4597,0.4598,0,0.4885,0.4867,0.4856,0.4838,0.4829,0.4813,0.4795,0.4793,0.4746,0.474,0.4728,0.4718,0.4697,0.4684,0.4663,0.4645,0.4614,0.4608,0.4612,0.4625,0.4639,0.4632,0.4535,0.4607,0.4606,0.4605,0.4605,0.4605,0.4949,0.4952,0.4924,0.4913,0.4895,0.4878,0.4877,0.485,0.484,0.482,0.4795,0.4787,0.476,0.4729,0.4713,0.4705,0.4688,0.4694,0.4696,0.4698,0.4704,0.4639,0.4701,0.4701,0.47,0.47,0.47,0,0.5027,0.5007,0.4997,0.4972,0.4963,0.4934,0.4912,0.4906,0.4899,0.4877,0.4864,0.4851,0.4837,0.4804,0.4787,0.4787,0.4772,0.4784,0.4784,0.4781,0.472,0.4718,0.4796,0.4796,0.4796,0.4796,0.4796,0.4796,0.5067,0.507,0.5048,0.5042,0.5021,0.5012,0.5002,0.4986,0.4968,0.4955,0.4944,0.4921,0.4894,0.4875,0.4861,0.4851,0.4847,0.4864,0.485,0.4794,0.4785,0.4776,0.4775,0.4863,0.4863,0.4911,0.4911,0.4912]}]]